sat.trackr.live / text

‹ back to catalog

STARLINK-5214

NORAD 54762 · 2022-175E

PAYLOAD ACTIVE UNKNOWN

§ Identity

Operator
Country
US
Launch date
2022-12-17
Launch site
AFETR
Launch vehicle
Mass (kg)
RCS (m²)

Purposes: comms

External: N2YO · Heavens-Above · Gunter

§ Orbital elements

Epoch: 2026-05-25T04:02:08.556576Z

Period
95.44 min
Inclination
53.2140°
Eccentricity
0.0001229
Mean motion
15.08843500 rev/d
Perigee alt
538.9 km
Apogee alt
540.6 km
Semi-major
6,917.9 km
B*
-2.5558e-5
RAAN
60.8673°
Arg perigee
108.6936°
Mean anomaly
251.4189°
Rev number
19,146

§ Raw data

STARLINK-52141 54762U 22175E   26145.16815459 -.00000695  00000+0 -25558-4 0  99982 54762  53.2140  60.8673 0001229 108.6936 251.4189 15.08843500191463

JSON: /api/v1/satellites/54762 · /tle

For live sub-satellite position, see the globe view (requires WebGL).

§ Visibility from observer

Set your observer location to see the next 7 days of passes ≥ 10°. The values pass through the URL so the page stays shareable.

No JS? Fill the form by hand. The geolocation button needs JavaScript.